Flag for Germany Weather past 2 weeks in Wittlich, Rhineland-Palatinate, Germany

Now
41 °F

Low clouds.


Feels Like: 33 °F
Forecast: 39 / 49 °F
Wind: 16 mph from Southwest

Location: Spangdahlem

Current Time: Dec 22, 2014 at 7:40:17 AM

Latest Report: Dec 22, 2014 at 7:02 AM


Visibility: N/A

Pressure: 30.26 "Hg

Humidity: 93%

Dew point: 39 °F

Location of WittlichLocation

Historic Weather in Wittlich — Graph

°F

Wittlich temperature yesterday

Maximum temperature yesterday: 41 °F (at 4:58 PM)
Minimum temperature yesterday: 37 °F (at 8:58 AM)
Average temperature yesterday: 40 °F

Past Weeks' High & Low Weather Summary

 TemperatureHumidityPressure
High52 °F (Dec 18, 5:58 PM)100% (Dec 7, 7:00 AM)30.47 "Hg (Dec 7, 7:00 AM)
Low27 °F (Dec 7, 7:00 AM)81% (Dec 14, 1:58 PM)29.54 "Hg (Dec 12, 5:58 PM)
Average39 °F95%30.04 "Hg
* Reported Dec 7 7:00 AM — Dec 22 6:04 AM, Wittlich, Weather by CustomWeather, © 2014

Note: Actual official high and low records may vary slightly from our data, if they occured in-between our weather recording intervals... More about our weather records

Advertising

Wittlich weather history for previous 24 hours

 ConditionsComfort  
Time TempWeatherWind HumidityBarometerVisibility
6:04 AM
Dec 22
41 °FLow clouds.16 mph93%30.25 "HgN/A
5:58 AM41 °FDrizzle. Low clouds.20 mph93%30.26 "HgN/A
4:58 AM41 °FDrizzle. Low clouds.16 mph96%30.28 "HgN/A
3:58 AM41 °FLow clouds.17 mph91%30.29 "HgN/A
2:58 AM41 °FOvercast.18 mph89%30.30 "HgN/A
1:58 AM41 °FLow clouds.17 mph93%30.31 "HgN/A
12:58 AM41 °FLow clouds.21 mph93%30.32 "HgN/A
11:58 PM
Dec 21
41 °FLow clouds.17 mph91%30.34 "HgN/A
10:58 PM41 °FOvercast.16 mph90%30.34 "HgN/A
9:58 PM41 °FOvercast.20 mph90%30.34 "HgN/A
8:58 PM41 °FLow clouds.20 mph92%30.36 "HgN/A
7:58 PM41 °FLow clouds.15 mph92%30.37 "HgN/A
6:58 PM40 °FLow clouds.16 mph93%30.37 "HgN/A
6:01 PM41 °FLow clouds.18 mph93%30.36 "HgN/A
5:58 PM41 °FLow clouds.16 mph93%30.37 "HgN/A
4:58 PM41 °FOvercast.15 mph87%30.38 "HgN/A
3:58 PM41 °FOvercast.14 mph87%30.39 "HgN/A
2:58 PM41 °FOvercast.15 mph93%30.40 "HgN/A
2:00 PM41 °FMostly cloudy.10 mph87%30.41 "HgN/A
1:58 PM41 °FMore clouds than sun.12 mph87%30.42 "HgN/A
1:01 PM41 °FMostly cloudy.12 mph87%30.43 "HgN/A
11:58 AM40 °FLow clouds.12 mph93%30.45 "HgN/A
10:58 AM39 °FLow clouds.13 mph93%30.47 "HgN/A
9:58 AM38 °FLow clouds.12 mph94%30.47 "HgN/A
8:58 AM37 °FLow clouds.12 mph96%30.47 "HgN/A
7:58 AM37 °FOvercast.10 mph93%30.45 "HgN/A
Weather by CustomWeather, © 2014

See weather overviewHow to use our weather pages